Satellite: NOAA-14 Catalog number: 23455 Epoch time: 10077.34211845 Element set: 987 Inclination: 098.8814 deg RA of node: 158.7050 deg Eccentricity: 0.0009977 Arg of perigee: 129.8194 deg Mean anomaly: 230.3877 deg Mean motion: 14.13780469 rev/day Decay rate: -4.2e-07 rev/day^2 Epoch rev: 78466 Checksum: 343
Satellite: NOAA-15 Catalog number: 25338 Epoch time: 10077.42447924 Element set: 307 Inclination: 098.6123 deg RA of node: 066.0053 deg Eccentricity: 0.0010415 Arg of perigee: 344.5874 deg Mean anomaly: 015.5000 deg Mean motion: 14.24813327 rev/day Decay rate: 1.91e-06 rev/day^2 Epoch rev: 61582 Checksum: 272
Satellite: RESURS Catalog number: 25394 Epoch time: 10077.57830392 Element set: 456 Inclination: 098.3123 deg RA of node: 100.5639 deg Eccentricity: 0.0002246 Arg of perigee: 109.4218 deg Mean anomaly: 250.7207 deg Mean motion: 14.24195653 rev/day Decay rate: 1.0e-07 rev/day^2 Epoch rev: 60745 Checksum: 275
Satellite: FENGYUN1 Catalog number: 25730 Epoch time: 10077.78582497 Element set: 998 Inclination: 098.7798 deg RA of node: 045.1123 deg Eccentricity: 0.0023716 Arg of perigee: 159.8507 deg Mean anomaly: 200.3599 deg Mean motion: 14.08190786 rev/day Decay rate: 4.76e-06 rev/day^2 Epoch rev: 55896 Checksum: 358
Satellite: OKEAN-0 Catalog number: 25860 Epoch time: 10077.42935425 Element set: 941 Inclination: 097.8224 deg RA of node: 053.2597 deg Eccentricity: 0.0001626 Arg of perigee: 058.4957 deg Mean anomaly: 301.6414 deg Mean motion: 14.73622315 rev/day Decay rate: 8.4e-07 rev/day^2 Epoch rev: 57353 Checksum: 299
Satellite: NOAA-16 Catalog number: 26536 Epoch time: 10077.41878707 Element set: 784 Inclination: 099.1760 deg RA of node: 092.7284 deg Eccentricity: 0.0009929 Arg of perigee: 229.2025 deg Mean anomaly: 130.8286 deg Mean motion: 14.12549750 rev/day Decay rate: -1.43e-06 rev/day^2 Epoch rev: 48901 Checksum: 327
Satellite: NOAA-17 Catalog number: 27453 Epoch time: 10077.36440584 Element set: 788 Inclination: 098.4424 deg RA of node: 131.4199 deg Eccentricity: 0.0012473 Arg of perigee: 046.4123 deg Mean anomaly: 313.8064 deg Mean motion: 14.24139955 rev/day Decay rate: 2.8e-07 rev/day^2 Epoch rev: 40177 Checksum: 305
Satellite: NOAA-18 Catalog number: 28654 Epoch time: 10077.41489666 Element set: 273 Inclination: 098.9411 deg RA of node: 023.9790 deg Eccentricity: 0.0013714 Arg of perigee: 312.3518 deg Mean anomaly: 047.6488 deg Mean motion: 14.11336629 rev/day Decay rate: 1.17e-06 rev/day^2 Epoch rev: 24863 Checksum: 321
Satellite: NOAA-19 Catalog number: 33591 Epoch time: 10077.45410391 Element set: 472 Inclination: 098.7815 deg RA of node: 021.5399 deg Eccentricity: 0.0013979 Arg of perigee: 182.8986 deg Mean anomaly: 177.2084 deg Mean motion: 14.11036086 rev/day Decay rate: 3.00e-06 rev/day^2 Epoch rev: 5711 Checksum: 310
/EX SB KEPS @ AMSAT $ORB10077.M Orbital Elements 10077.MISC
HR AMSAT ORBITAL ELEMENTS FOR MANNED AND MISCELLANEOUS SATELLITES FROM WA5QGD FORT WORTH,TX March 18, 2010 Send Subscribe/unsubscribe to KEPS at http://www.amsat.org/mailman/listinfo/keps BID: ORB10077.M TO ALL RADIO AMATEURS BT
Satellite: HUBBLE Catalog number: 20580 Epoch time: 10077.15135467 Element set: 537 Inclination: 028.4686 deg RA of node: 114.1449 deg Eccentricity: 0.0003251 Arg of perigee: 309.5084 deg Mean anomaly: 050.5268 deg Mean motion: 15.00922806 rev/day Decay rate: 6.13e-06 rev/day^2 Epoch rev: 89106 Checksum: 277
Satellite: ISS Catalog number: 25544 Epoch time: 10078.03626584 Element set: 799 Inclination: 051.6474 deg RA of node: 333.4280 deg Eccentricity: 0.0007746 Arg of perigee: 067.0877 deg Mean anomaly: 023.4595 deg Mean motion: 15.74194950 rev/day Decay rate: 2.4786e-04 rev/day^2 Epoch rev: 64927 Checksum: 339
Satellite: CO-58 Catalog number: 28895 Epoch time: 10077.71493048 Element set: 539 Inclination: 098.0270 deg RA of node: 325.1269 deg Eccentricity: 0.0017444 Arg of perigee: 205.6793 deg Mean anomaly: 154.3577 deg Mean motion: 14.59861481 rev/day Decay rate: 3.87e-06 rev/day^2 Epoch rev: 23378 Checksum: 349
Satellite: FALCON Catalog number: 30776 Epoch time: 10076.84810829 Element set: 787 Inclination: 035.4334 deg RA of node: 238.7830 deg Eccentricity: 0.0000457 Arg of perigee: 017.1842 deg Mean anomaly: 342.8896 deg Mean motion: 15.03526439 rev/day Decay rate: 9.49e-06 rev/day^2 Epoch rev: 16630 Checksum: 316
Satellite: MAST Catalog number: 31126 Epoch time: 10077.63320789 Element set: 821 Inclination: 097.9486 deg RA of node: 124.2809 deg Eccentricity: 0.0094871 Arg of perigee: 147.0287 deg Mean anomaly: 213.6879 deg Mean motion: 14.53563547 rev/day Decay rate: 6.7e-07 rev/day^2 Epoch rev: 15490 Checksum: 325
Satellite: CAPE1 Catalog number: 31130 Epoch time: 10077.52802630 Element set: 840 Inclination: 097.9498 deg RA of node: 121.7722 deg Eccentricity: 0.0103422 Arg of perigee: 154.7823 deg Mean anomaly: 205.8495 deg Mean motion: 14.52147812 rev/day Decay rate: 2.29e-06 rev/day^2 Epoch rev: 15450 Checksum: 277
Satellite: COMPASS Catalog number: 32787 Epoch time: 10077.34806976 Element set: 622 Inclination: 097.9032 deg RA of node: 143.3223 deg Eccentricity: 0.0014956 Arg of perigee: 218.8608 deg Mean anomaly: 141.1594 deg Mean motion: 14.81793051 rev/day Decay rate: 6.98e-06 rev/day^2 Epoch rev: 10204 Checksum: 304
Satellite: AAUSAT2 Catalog number: 32788 Epoch time: 10076.68453991 Element set: 616 Inclination: 097.9045 deg RA of node: 142.7751 deg Eccentricity: 0.0014334 Arg of perigee: 222.3876 deg Mean anomaly: 137.6222 deg Mean motion: 14.81929452 rev/day Decay rate: 7.27e-06 rev/day^2 Epoch rev: 10195 Checksum: 317
Satellite: DO-64 Catalog number: 32789 Epoch time: 10076.70075396 Element set: 632 Inclination: 097.9092 deg RA of node: 143.1673 deg Eccentricity: 0.0015086 Arg of perigee: 219.1357 deg Mean anomaly: 140.8728 deg Mean motion: 14.82017414 rev/day Decay rate: 1.083e-05 rev/day^2 Epoch rev: 10195 Checksum: 309
Satellite: CO-66 Catalog number: 32791 Epoch time: 10076.68182577 Element set: 613 Inclination: 097.9060 deg RA of node: 142.6885 deg Eccentricity: 0.0015176 Arg of perigee: 219.0635 deg Mean anomaly: 140.9473 deg Mean motion: 14.81592083 rev/day Decay rate: 5.11e-06 rev/day^2 Epoch rev: 10190 Checksum: 310
Satellite: RS-30 Catalog number: 32953 Epoch time: 10077.57864575 Element set: 551 Inclination: 082.4967 deg RA of node: 086.0250 deg Eccentricity: 0.0017664 Arg of perigee: 303.3710 deg Mean anomaly: 056.5685 deg Mean motion: 12.43004331 rev/day Decay rate: 1.0e-07 rev/day^2 Epoch rev: 8248 Checksum: 286
Satellite: TACSAT-3 Catalog number: 35001 Epoch time: 10077.33931542 Element set: 240 Inclination: 040.4555 deg RA of node: 039.4594 deg Eccentricity: 0.0022174 Arg of perigee: 040.5552 deg Mean anomaly: 319.6911 deg Mean motion: 15.40758229 rev/day Decay rate: 8.895e-05 rev/day^2 Epoch rev: 4661 Checksum: 286
Satellite: PHARMSAT Catalog number: 35002 Epoch time: 10077.26168695 Element set: 228 Inclination: 040.4697 deg RA of node: 038.2820 deg Eccentricity: 0.0024127 Arg of perigee: 045.4710 deg Mean anomaly: 314.8070 deg Mean motion: 15.41374031 rev/day Decay rate: 7.870e-05 rev/day^2 Epoch rev: 4661 Checksum: 269
Satellite: HAWKSAT1 Catalog number: 35003 Epoch time: 10077.26273449 Element set: 242 Inclination: 040.4603 deg RA of node: 035.3545 deg Eccentricity: 0.0023214 Arg of perigee: 052.6333 deg Mean anomaly: 307.6592 deg Mean motion: 15.43458738 rev/day Decay rate: 1.5767e-04 rev/day^2 Epoch rev: 4665 Checksum: 282
Satellite: CP6 Catalog number: 35004 Epoch time: 10077.88156240 Element set: 235 Inclination: 040.4578 deg RA of node: 031.2524 deg Eccentricity: 0.0021708 Arg of perigee: 059.3713 deg Mean anomaly: 300.9257 deg Mean motion: 15.43960321 rev/day Decay rate: 1.8080e-04 rev/day^2 Epoch rev: 4674 Checksum: 273
Satellite: AEROCUB3 Catalog number: 35005 Epoch time: 10077.29659161 Element set: 250 Inclination: 040.4727 deg RA of node: 035.0613 deg Eccentricity: 0.0019050 Arg of perigee: 055.6861 deg Mean anomaly: 304.5768 deg Mean motion: 15.45542573 rev/day Decay rate: 3.6358e-04 rev/day^2 Epoch rev: 4665 Checksum: 292
Satellite: DRAGNSAT Catalog number: 35690 Epoch time: 10076.22573662 Element set: 317 Inclination: 051.6207 deg RA of node: 315.5093 deg Eccentricity: 0.0003725 Arg of perigee: 309.8010 deg Mean anomaly: 050.2776 deg Mean motion: 16.41595152 rev/day Decay rate: 4.717833e-02 rev/day^2 Epoch rev: 3656 Checksum: 290
Satellite: POLLUX Catalog number: 35693 Epoch time: 10077.83488935 Element set: 331 Inclination: 051.6292 deg RA of node: 310.6138 deg Eccentricity: 0.0005521 Arg of perigee: 229.4850 deg Mean anomaly: 130.5752 deg Mean motion: 16.13753378 rev/day Decay rate: 5.35022e-03 rev/day^2 Epoch rev: 3674 Checksum: 296
Satellite: CASTOR Catalog number: 35694 Epoch time: 10077.86013633 Element set: 230 Inclination: 051.6378 deg RA of node: 319.3317 deg Eccentricity: 0.0004219 Arg of perigee: 185.5808 deg Mean anomaly: 174.5158 deg Mean motion: 15.90196496 rev/day Decay rate: 5.1761e-04 rev/day^2 Epoch rev: 3663 Checksum: 311
Satellite: METEOR-M Catalog number: 35865 Epoch time: 10077.28443062 Element set: 152 Inclination: 098.7699 deg RA of node: 131.6884 deg Eccentricity: 0.0001550 Arg of perigee: 269.9410 deg Mean anomaly: 090.1565 deg Mean motion: 14.21828992 rev/day Decay rate: 1.76e-06 rev/day^2 Epoch rev: 2580 Checksum: 311
Satellite: RS-38 Catalog number: 35869 Epoch time: 10077.82847054 Element set: 155 Inclination: 098.7689 deg RA of node: 132.2534 deg Eccentricity: 0.0003830 Arg of perigee: 267.5762 deg Mean anomaly: 092.4938 deg Mean motion: 14.21977312 rev/day Decay rate: 1.76e-06 rev/day^2 Epoch rev: 2588 Checksum: 341
/EX